Sigfox identifier Datetime Temperature Humidity SNR
003A53DF 2019-04-23 14:53:09 16 34 23.7
003A53DF 2019-04-23 14:20:12 15.9 34 23.6
003A53DF 2019-04-23 13:47:17 15.7 34 23.6
003A53DF 2019-04-23 13:14:22 15.7 34 23.3
003A53DF 2019-04-23 12:41:25 15.7 34 23.1
003A53DF 2019-04-23 12:08:28 15.6 34 22.8
003A53DF 2019-04-23 11:35:32 15.5 34 22.4
003A53DF 2019-04-23 11:02:36 15.5 34 21.9
003A53DF 2019-04-23 10:29:40 15.3 34 21.6
003A53DF 2019-04-23 09:56:46 15.3 34 21.4
003A53DF 2019-04-23 09:23:51 15.3 33 21.3
003A53DF 2019-04-23 08:50:56 15.3 33 20.5
003A53DF 2019-04-23 08:18:01 15.3 33 19.6
003A53DF 2019-04-23 07:45:05 15.3 33 19.6
003A53DF 2019-04-23 07:12:11 15.3 33 19.7
003A53DF 2019-04-23 06:39:17 15.3 33 19.8
003A53DF 2019-04-23 06:06:22 15.3 33 20
003A53DF 2019-04-23 05:33:26 15.3 33 20.2
003A53DF 2019-04-23 05:00:30 15.3 33 20.3
003A53DF 2019-04-23 04:27:34 15.3 33 20.4
003A53DF 2019-04-23 03:54:39 15.5 33 20.5
003A53DF 2019-04-23 03:21:44 15.3 33 20.6
003A53DF 2019-04-23 02:48:48 15.3 33 20.7
003A53DF 2019-04-23 02:15:54 15.4 33 20.7
003A53DF 2019-04-23 01:43:02 15.5 33 20.7
003A53DF 2019-04-23 01:10:11 15.5 33 20.7
003A53DF 2019-04-23 00:37:20 15.5 33 20.8
003A53DF 2019-04-23 00:04:26 15.5 33 20.9
003A53DF 2019-04-22 23:31:35 15.5 33 20.9
003A53DF 2019-04-22 22:58:43 15.5 33 20.9
003A53DF 2019-04-22 22:25:51 15.5 33 20.9
003A53DF 2019-04-22 21:52:58 15.5 33 21
003A53DF 2019-04-22 21:20:07 15.5 33 20.9
003A53DF 2019-04-22 20:47:15 15.5 33 20.9
003A53DF 2019-04-22 20:14:23 15.5 33 20.9
003A53DF 2019-04-22 19:41:31 15.6 33 20.9
003A53DF 2019-04-22 19:08:36 15.7 33 20.9
003A53DF 2019-04-22 18:35:42 15.6 33 20.7
003A53DF 2019-04-22 18:02:46 15.6 33 20.7
003A53DF 2019-04-22 17:29:51 15.6 33 20.7
003A53DF 2019-04-22 16:56:56 15.6 33 20.5
003A53DF 2019-04-22 16:24:01 15.5 33 20.4
003A53DF 2019-04-22 15:51:06 15.5 33 20.3
003A53DF 2019-04-22 15:18:10 15.5 33 20.2
003A53DF 2019-04-22 14:45:16 15.5 33 20
003A53DF 2019-04-22 14:12:20 15.5 33 19.8
003A53DF 2019-04-22 13:39:25 15.5 33 19.6
003A53DF 2019-04-22 13:06:31 15.5 33 19.7
003A53DF 2019-04-22 12:33:35 15.5 33 19.7
003A53DF 2019-04-22 12:00:39 15.4 33 19.7
003A53DF 2019-04-22 11:27:44 15.5 33 19.8
003A53DF 2019-04-22 10:54:48 15.4 33 19.6
003A53DF 2019-04-22 10:21:53 15.5 33 19.5
003A53DF 2019-04-22 09:48:58 15.3 33 19.6
003A53DF 2019-04-22 09:16:03 15.3 33 19.6
003A53DF 2019-04-22 08:43:08 15.3 33 19.7
003A53DF 2019-04-22 08:10:13 15.3 33 19.7
003A53DF 2019-04-22 07:37:18 15.3 33 19.7
003A53DF 2019-04-22 07:04:25 15.3 33 19.8
003A53DF 2019-04-22 06:31:31 15.3 33 19.5
003A53DF 2019-04-22 05:58:38 15.3 32 19.6
003A53DF 2019-04-22 05:25:45 15.5 33 19.7
003A53DF 2019-04-22 04:52:51 15.3 32 19.9
003A53DF 2019-04-22 04:19:57 15.3 32 19.9
003A53DF 2019-04-22 03:47:03 15.3 33 20
003A53DF 2019-04-22 03:14:10 15.3 32 20
003A53DF 2019-04-22 02:41:15 15.4 33 20
003A53DF 2019-04-22 02:08:22 15.3 32 20
003A53DF 2019-04-22 01:35:29 15.3 33 20
003A53DF 2019-04-22 01:02:33 15.3 33 20.1
003A53DF 2019-04-22 00:29:37 15.3 33 20
003A53DF 2019-04-21 23:56:41 15.3 33 20.1
003A53DF 2019-04-21 23:23:46 15.3 33 20
003A53DF 2019-04-21 22:50:49 15.3 33 20.1
003A53DF 2019-04-21 22:17:54 15.3 33 20.2
003A53DF 2019-04-21 21:44:59 15.3 33 20.3
003A53DF 2019-04-21 21:12:03 15.3 33 20.3
003A53DF 2019-04-21 20:39:08 15.3 33 20.3
003A53DF 2019-04-21 20:06:14 15.3 33 20.3
003A53DF 2019-04-21 19:33:19 15.3 33 20.3
003A53DF 2019-04-21 19:00:23 15.3 33 20.3
003A53DF 2019-04-21 18:27:28 15.3 33 20.2
003A53DF 2019-04-21 17:54:34 15.3 33 20.1
003A53DF 2019-04-21 17:21:38 15.3 33 20.2
003A53DF 2019-04-21 16:48:41 15.3 32 20.1
003A53DF 2019-04-21 16:15:44 15.3 32 19.9
003A53DF 2019-04-21 15:42:48 15.3 32 19.9
003A53DF 2019-04-21 15:09:51 15.3 32 19.8
003A53DF 2019-04-21 14:36:56 15.3 32 19.7
003A53DF 2019-04-21 14:04:01 15.3 32 19.7
003A53DF 2019-04-21 13:31:06 15.3 32 19.5
003A53DF 2019-04-21 12:58:11 15.3 32 19.4
003A53DF 2019-04-21 12:25:15 15.2 32 19.5
003A53DF 2019-04-21 11:52:20 15.2 32 19.6
003A53DF 2019-04-21 11:19:24 15.3 32 19.7
003A53DF 2019-04-21 10:46:28 15.3 32 19.7
003A53DF 2019-04-21 10:13:34 15.3 32 19.6
003A53DF 2019-04-21 09:40:38 15.3 32 19.8
003A53DF 2019-04-21 09:07:43 15.3 32 19.7
003A53DF 2019-04-21 08:34:49 15.3 32 19.6
003A53DF 2019-04-21 08:01:55 15.5 32 19.6
003A53DF 2019-04-21 07:29:00 15.3 32 19.7
003A53DF 2019-04-21 06:56:06 15.5 32 19.7
003A53DF 2019-04-21 06:23:12 15.3 32 19.7
003A53DF 2019-04-21 05:50:16 15.5 32 19.8
003A53DF 2019-04-21 05:17:21 15.3 32 19.8
003A53DF 2019-04-21 04:44:26 15.5 32 19.8
003A53DF 2019-04-21 04:11:30 15.3 32 19.8
003A53DF 2019-04-21 03:38:34 15.5 32 19.8
003A53DF 2019-04-21 03:05:39 15.3 32 19.9
003A53DF 2019-04-21 02:32:44 15.4 32 20
003A53DF 2019-04-21 01:59:49 15.3 32 20
003A53DF 2019-04-21 01:26:53 15.4 32 20.1
003A53DF 2019-04-21 00:53:58 15.3 32 20.1
003A53DF 2019-04-21 00:21:03 15.4 32 20.3
003A53DF 2019-04-20 23:48:08 15.5 32 20.4
003A53DF 2019-04-20 23:15:14 15.3 32 20.4
003A53DF 2019-04-20 22:42:19 15.3 32 20.5
003A53DF 2019-04-20 22:09:23 15.3 32 20.5
003A53DF 2019-04-20 21:36:28 15.3 32 20.7
003A53DF 2019-04-20 21:03:33 15.3 32 20.7
003A53DF 2019-04-20 20:30:39 15.3 32 20.7
003A53DF 2019-04-20 19:57:45 15.3 32 20.7
003A53DF 2019-04-20 19:24:50 15.3 32 20.7
003A53DF 2019-04-20 18:51:56 15.4 32 20.6
003A53DF 2019-04-20 18:19:01 15.5 32 20.6
003A53DF 2019-04-20 17:46:06 15.5 32 20.5
003A53DF 2019-04-20 17:13:12 15.3 32 20.3
003A53DF 2019-04-20 16:40:17 15.3 32 20.2
003A53DF 2019-04-20 16:07:26 15.5 32 20.1
003A53DF 2019-04-20 15:34:34 15.4 32 20.1
003A53DF 2019-04-20 15:01:42 15.4 32 20.2
003A53DF 2019-04-20 14:28:51 15.3 32 20.3
003A53DF 2019-04-20 13:56:00 15.3 32 20.1
003A53DF 2019-04-20 13:23:09 15.3 32 20
003A53DF 2019-04-20 12:50:17 15.3 31 19.9
003A53DF 2019-04-20 12:17:22 15.3 31 19.9
003A53DF 2019-04-20 11:44:27 15.4 31 19.8
003A53DF 2019-04-20 11:11:33 15.4 31 19.6
003A53DF 2019-04-20 10:38:38 15.5 31 19.5
003A53DF 2019-04-20 10:05:45 15.5 31 19.6
003A53DF 2019-04-20 09:32:50 15.5 31 19.6
003A53DF 2019-04-20 08:59:56 15.5 31 19.4
003A53DF 2019-04-20 08:27:00 15.5 31 19.2
003A53DF 2019-04-20 07:54:05 15.5 31 19
003A53DF 2019-04-20 07:21:11 15.5 31 19
003A53DF 2019-04-20 06:48:15 15.6 31 19.1
003A53DF 2019-04-20 06:15:22 15.5 31 19.2
003A53DF 2019-04-20 05:42:25 15.5 31 19.3
003A53DF 2019-04-20 05:09:31 15.6 31 19.5
003A53DF 2019-04-20 04:36:36 15.5 31 19.6
003A53DF 2019-04-20 04:03:42 15.5 31 21.2
003A53DF 2019-04-20 03:30:47 15.6 31 21.3
003A53DF 2019-04-20 02:57:51 15.6 31 21.4
003A53DF 2019-04-20 02:24:54 15.7 31 21.4
003A53DF 2019-04-20 01:51:59 15.7 31 21.4
003A53DF 2019-04-20 01:19:04 15.7 31 21.4
003A53DF 2019-04-20 00:46:09 15.7 31 21.5
003A53DF 2019-04-20 00:13:15 15.7 31 21.5
003A53DF 2019-04-19 23:40:21 15.7 31 21.5
003A53DF 2019-04-19 23:07:27 15.7 31 21.5
003A53DF 2019-04-19 22:34:34 15.8 31 21.6
003A53DF 2019-04-19 22:01:39 15.8 31 21.6
003A53DF 2019-04-19 21:28:45 15.8 31 21.6
003A53DF 2019-04-19 20:55:54 15.9 31 21.5
003A53DF 2019-04-19 20:23:02 15.9 31 21.5
003A53DF 2019-04-19 19:50:11 15.9 31 21.5
003A53DF 2019-04-19 19:17:20 15.9 31 21.5
003A53DF 2019-04-19 18:44:26 15.9 31 21.4
003A53DF 2019-04-19 18:11:32 15.9 31 21.2
003A53DF 2019-04-19 17:38:37 15.9 31 21.1
003A53DF 2019-04-19 17:05:42 15.9 31 20.9
003A53DF 2019-04-19 16:32:49 15.8 31 20.8
003A53DF 2019-04-19 15:59:56 15.7 31 20.6
003A53DF 2019-04-19 15:27:03 15.7 31 20.5
003A53DF 2019-04-19 14:54:11 15.7 31 18.6
003A53DF 2019-04-19 14:21:19 15.7 31 18.5
003A53DF 2019-04-19 13:48:29 15.7 31 18
003A53DF 2019-04-19 13:15:38 15.7 31 17.9
003A53DF 2019-04-19 12:42:47 15.7 31 17.9
003A53DF 2019-04-19 12:09:57 15.7 31 17.8
003A53DF 2019-04-19 11:37:06 15.7 31 17.5
003A53DF 2019-04-19 11:04:16 15.6 31 17.5
003A53DF 2019-04-19 10:31:25 15.7 31 17.7
003A53DF 2019-04-19 09:58:34 15.7 31 17.9
003A53DF 2019-04-19 09:25:43 15.7 31 17.9
003A53DF 2019-04-19 08:52:53 15.6 31 18.2
003A53DF 2019-04-19 08:20:02 15.7 30 18.6
003A53DF 2019-04-19 07:47:11 15.7 30 18.5
003A53DF 2019-04-19 07:14:19 15.7 30 19
003A53DF 2019-04-19 06:41:29 15.7 30 19.3
003A53DF 2019-04-19 06:08:38 15.7 30 19.8
003A53DF 2019-04-19 05:35:47 15.7 30 20.2
003A53DF 2019-04-19 05:02:56 15.9 30 20.8
003A53DF 2019-04-19 04:30:05 15.7 30 21.5
003A53DF 2019-04-19 03:57:14 15.8 30 21.9
003A53DF 2019-04-19 03:24:23 15.9 30 21.9
003A53DF 2019-04-19 02:51:32 15.9 30 22.2
003A53DF 2019-04-19 02:18:41 15.9 30 22.5
003A53DF 2019-04-19 01:45:50 15.9 30 22.8
003A53DF 2019-04-19 01:12:59 16 30 23.2
003A53DF 2019-04-19 00:40:07 16.1 30 23.5
003A53DF 2019-04-19 00:07:15 16.1 30 23.7
003A53DF 2019-04-18 23:34:24 16.1 30 23.9
003A53DF 2019-04-18 23:01:34 16.3 30 23.9
003A53DF 2019-04-18 22:28:44 16.3 30 23.9
003A53DF 2019-04-18 21:55:52 16.3 30 24
003A53DF 2019-04-18 21:23:01 16.3 30 24.2
003A53DF 2019-04-18 20:50:11 16.3 30 24.2
003A53DF 2019-04-18 20:17:20 16.3 30 24.1
003A53DF 2019-04-18 19:44:28 16.3 30 24.1
003A53DF 2019-04-18 19:11:34 16.3 30 24
003A53DF 2019-04-18 18:38:40 16.3 30 23.9
003A53DF 2019-04-18 18:05:47 16.3 30 23.9
003A53DF 2019-04-18 17:32:57 16.3 30 23.7
003A53DF 2019-04-18 17:00:07 16.3 30 23.6
003A53DF 2019-04-18 16:27:16 16.3 30 23.4
003A53DF 2019-04-18 15:54:25 16.2 30 23.2
003A53DF 2019-04-18 15:21:35 16.1 30 22.9
003A53DF 2019-04-18 14:48:44 16.1 30 22.4
003A53DF 2019-04-18 14:15:53 16.1 30 22.1
003A53DF 2019-04-18 13:43:02 16 30 22
003A53DF 2019-04-18 13:10:12 15.9 30 21.8
003A53DF 2019-04-18 12:37:21 15.9 30 21.5
003A53DF 2019-04-18 12:04:26 16 30 21.3
003A53DF 2019-04-18 11:31:32 16 30 21.1
003A53DF 2019-04-18 10:58:38 16.1 30 20.8
003A53DF 2019-04-18 10:25:44 16.1 30 21.1
003A53DF 2019-04-18 09:52:50 15.9 30 21.1
003A53DF 2019-04-18 09:19:55 15.9 30 21.2
003A53DF 2019-04-18 08:47:00 15.9 30 21.4
003A53DF 2019-04-18 08:14:06 16.1 30 21.5
003A53DF 2019-04-18 07:41:12 16.2 30 21.7
003A53DF 2019-04-18 07:08:18 16.1 30 22
003A53DF 2019-04-18 06:35:25 16.1 30 22.3
003A53DF 2019-04-18 06:02:31 16.1 30 22.5
003A53DF 2019-04-18 05:29:40 16.1 30 22.7
003A53DF 2019-04-18 04:56:50 16.1 30 22.8
003A53DF 2019-04-18 04:24:00 16.1 30 22.8
003A53DF 2019-04-18 03:51:10 16.1 30 22.9
003A53DF 2019-04-18 03:18:20 16.1 30 23.1
003A53DF 2019-04-18 02:45:27 16.1 30 23.2
003A53DF 2019-04-18 02:12:34 16.1 29 23.2
003A53DF 2019-04-18 01:39:41 16.3 29 23.9
003A53DF 2019-04-18 01:06:51 16.3 29 24.2
003A53DF 2019-04-18 00:33:53 16.3 29 24.3
003A53DF 2019-04-18 00:00:59 16.5 29 24.4
003A53DF 2019-04-17 23:28:04 16.5 30 24.5
003A53DF 2019-04-17 22:55:10 16.5 30 24.5
003A53DF 2019-04-17 22:22:15 16.5 30 24.3
003A53DF 2019-04-17 21:49:21 16.5 30 24.3
003A53DF 2019-04-17 21:16:27 16.5 30 24.2
003A53DF 2019-04-17 20:43:33 16.5 29 24
003A53DF 2019-04-17 20:10:39 16.5 29 24
003A53DF 2019-04-17 19:37:45 16.5 29 24
003A53DF 2019-04-17 19:04:52 16.5 29 23.9
003A53DF 2019-04-17 18:31:59 16.5 29 23.6
003A53DF 2019-04-17 17:59:08 16.5 29 23.6
003A53DF 2019-04-17 17:26:18 16.5 29 23.5
003A53DF 2019-04-17 16:53:27 16.5 29 23.4
003A53DF 2019-04-17 16:20:37 16.5 28 23.3
003A53DF 2019-04-17 15:47:47 16.5 28 23.4
003A53DF 2019-04-17 15:14:57 16.5 28 23.4
003A53DF 2019-04-17 14:42:08 16.5 27 23.3
003A53DF 2019-04-17 14:09:19 16.5 27 23.4
003A53DF 2019-04-17 13:03:40 16.8 27 23.4
003A53DF 2019-04-17 12:30:51 16.7 27 23.4
003A53DF 2019-04-17 11:58:02 16.5 27 22.6
003A53DF 2019-04-17 11:25:12 16.6 27 22.6
003A53DF 2019-04-17 10:52:21 16.7 27 22.2
003A53DF 2019-04-17 10:19:31 16.5 27 22
003A53DF 2019-04-17 09:46:40 16.8 27 21.8
003A53DF 2019-04-17 09:13:50 16.8 26 21.8
003A53DF 2019-04-17 08:40:59 16.8 26 21.6
003A53DF 2019-04-17 08:08:08 17 26 21.6
003A53DF 2019-04-17 07:35:14 17.2 26 21.4
003A53DF 2019-04-17 07:02:21 17.4 26 21.8
003A53DF 2019-04-17 06:29:26 17.6 26 22.7
003A53DF 2019-04-17 05:56:33 17.6 26 22.7
003A53DF 2019-04-17 05:23:39 17.6 26 22.6
003A53DF 2019-04-17 04:50:46 17.8 26 22.5
003A53DF 2019-04-17 04:17:53 17.8 26 22.5
003A53DF 2019-04-17 03:45:00 17.9 26 22.4
003A53DF 2019-04-17 03:12:08 17.9 26 22.4
003A53DF 2019-04-17 02:39:15 18 26 22.3
003A53DF 2019-04-17 02:06:22 18 26 22.1
003A53DF 2019-04-17 01:33:28 18 26 22
003A53DF 2019-04-17 01:00:35 18 26 21.9
003A53DF 2019-04-17 00:27:46 18 26 21.7
003A53DF 2019-04-16 23:54:55 18 26 21.3
003A53DF 2019-04-16 23:22:04 17.8 25 21.1
003A53DF 2019-04-16 22:49:14 17.6 24 21
003A53DF 2019-04-16 22:16:24 18 24 21
003A53DF 2019-04-16 21:43:35 18.4 25 21
003A53DF 2019-04-16 21:10:45 18.6 24 21.1
003A53DF 2019-04-16 20:37:56 18.9 25 21.1
003A53DF 2019-04-16 20:05:06 18.9 25 21.1
003A53DF 2019-04-16 19:32:14 19.1 25 20.8
003A53DF 2019-04-16 18:59:23 19.1 25 20.8
003A53DF 2019-04-16 18:26:31 19.1 24 20.8
003A53DF 2019-04-16 17:53:41 19.1 24 20.7
003A53DF 2019-04-16 16:15:00 19.5 24 20
003A53DF 2019-04-16 15:09:13 19.8 24 18.2
003A53DF 2019-04-16 14:36:19 20 23 17.7
003A53DF 2019-04-16 14:03:25 20.9 24 17.8
003A53DF 2019-04-16 13:30:31 21 25 17.8
003A53DF 2019-04-16 12:57:38 20.8 25 17.8
003A53DF 2019-04-16 12:24:46 20.8 26 19.7
003A53DF 2019-04-16 11:51:51 20.6 27 19.4
003A53DF 2019-04-16 11:18:59 20.4 28 19.5
003A53DF 2019-04-16 10:46:09 20.4 28 19.7
003A53DF 2019-04-16 10:13:11 20.4 28 19.7
003A53DF 2019-04-16 09:40:18 20.4 28 19.7
003A53DF 2019-04-16 09:07:29 20.4 28 19.8
003A53DF 2019-04-16 08:34:40 20.4 28 19.7
003A53DF 2019-04-16 08:01:46 20.4 28 19.9
003A53DF 2019-04-16 07:28:54 20.4 28 19.9
003A53DF 2019-04-16 06:56:00 20.4 28 20.1
003A53DF 2019-04-16 06:23:04 20.4 28 20.1
003A53DF 2019-04-16 05:50:09 20.4 28 20
003A53DF 2019-04-16 05:17:15 20.4 28 20
003A53DF 2019-04-16 04:44:20 20.4 28 20.1
003A53DF 2019-04-16 04:11:25 20.4 27 20.2
003A53DF 2019-04-16 03:38:33 20.4 27 20.1
003A53DF 2019-04-16 03:05:41 20.4 27 20.3
003A53DF 2019-04-16 02:32:44 20.4 27 20.5
003A53DF 2019-04-16 01:59:48 20.4 27 20.6
003A53DF 2019-04-16 01:26:53 20.4 27 21
003A53DF 2019-04-16 00:53:58 20.4 27 21.3
003A53DF 2019-04-16 00:21:03 20.4 27 21.5
003A53DF 2019-04-15 23:48:10 20.4 27 21.6
003A53DF 2019-04-15 23:15:14 20.4 27 21
003A53DF 2019-04-15 22:42:19 20.4 27 21.5
003A53DF 2019-04-15 22:09:25 20.4 26 21.7
003A53DF 2019-04-15 21:36:27 20.5 26 21.8
003A53DF 2019-04-15 21:03:31 20.6 26 22
003A53DF 2019-04-15 20:30:36 20.6 26 22.5
003A53DF 2019-04-15 19:57:41 20.6 26 23.3
003A53DF 2019-04-15 19:24:48 20.6 26 23.4
003A53DF 2019-04-15 18:51:53 20.6 26 23.6
003A53DF 2019-04-15 18:18:56 20.8 25 23.9
003A53DF 2019-04-15 17:46:02 20.8 25 24.4
003A53DF 2019-04-15 17:13:10 20.8 25 24.5
003A53DF 2019-04-15 16:40:19 20.9 24 24.8
003A53DF 2019-04-15 16:07:29 21 24 25.1
003A53DF 2019-04-15 15:34:35 21 23 25.2
003A53DF 2019-04-15 15:01:41 21.2 23 25.3
003A53DF 2019-04-15 14:28:47 21.3 22 25.4
003A53DF 2019-04-15 13:55:54 21.4 21 25.6
003A53DF 2019-04-15 13:22:58 21.5 20 25.8
003A53DF 2019-04-15 12:50:05 21.8 19 25.9
003A53DF 2019-04-15 12:17:10 22.1 17 26
003A53DF 2019-04-15 11:44:16 22.4 16 26
003A53DF 2019-04-15 11:11:21 22.3 16 26
003A53DF 2019-04-15 10:38:27 22.3 16 26.2
003A53DF 2019-04-15 10:05:33 22.3 17 26.3
003A53DF 2019-04-15 09:32:40 22.1 17 26.5
003A53DF 2019-04-15 08:59:46 22.1 17 26.5
003A53DF 2019-04-15 08:26:55 22 16 26.5
003A53DF 2019-04-15 07:54:02 21.9 16 26.7
003A53DF 2019-04-15 07:21:09 21.9 17 26.7
003A53DF 2019-04-15 06:48:16 21.9 17 26.7
003A53DF 2019-04-15 06:15:23 21.8 17 26.5
003A53DF 2019-04-15 05:42:28 21.9 17 26.5
003A53DF 2019-04-15 05:09:34 21.8 17 26.5
003A53DF 2019-04-15 04:36:40 21.8 17 26.4
003A53DF 2019-04-15 04:03:45 21.9 17 26.2
003A53DF 2019-04-15 03:30:51 21.9 17 26.4
003A53DF 2019-04-15 02:57:55 21.8 17 26.3
003A53DF 2019-04-15 02:25:00 21.8 17 26.2
003A53DF 2019-04-15 01:52:05 21.8 17 26.2
003A53DF 2019-04-15 01:19:09 21.8 17 26.4
003A53DF 2019-04-15 00:46:16 21.8 17 26.6
003A53DF 2019-04-15 00:13:21 21.7 17 26.6
003A53DF 2019-04-14 23:40:28 21.8 17 26.7
003A53DF 2019-04-14 23:07:35 21.8 17 26.7
003A53DF 2019-04-14 22:34:40 21.9 17 26.7
003A53DF 2019-04-14 22:01:46 21.9 18 26.7
003A53DF 2019-04-14 21:28:51 21.9 18 26.7
003A53DF 2019-04-14 20:55:56 21.9 18 26.5
003A53DF 2019-04-14 20:23:01 21.9 18 26.5
003A53DF 2019-04-14 19:50:05 21.9 18 26.3
003A53DF 2019-04-14 19:17:11 21.9 18 26.1
003A53DF 2019-04-14 18:44:16 21.9 18 26.2
003A53DF 2019-04-14 18:11:21 21.9 18 26
003A53DF 2019-04-14 17:38:26 21.9 18 26.1
003A53DF 2019-04-14 17:05:32 21.9 18 26
003A53DF 2019-04-14 16:32:36 21.9 18 26
003A53DF 2019-04-14 15:59:42 21.9 18 26.1
003A53DF 2019-04-14 15:26:47 21.9 18 26
003A53DF 2019-04-14 14:53:53 21.9 18 26
003A53DF 2019-04-14 14:20:57 21.9 18 25.9
003A53DF 2019-04-14 13:48:04 21.9 18 25.7
003A53DF 2019-04-14 13:15:08 21.9 18 25.7
003A53DF 2019-04-14 12:42:13 21.9 18 25.7
003A53DF 2019-04-14 12:09:18 21.9 18 25.8
003A53DF 2019-04-14 11:36:23 21.9 18 25.7
003A53DF 2019-04-14 11:03:28 21.9 18 25.4
003A53DF 2019-04-14 10:30:34 21.9 18 25.4
003A53DF 2019-04-14 09:57:39 21.9 18 25.2
003A53DF 2019-04-14 09:24:43 21.9 18 25.2
003A53DF 2019-04-14 08:51:48 21.9 18 25.1
003A53DF 2019-04-14 08:18:54 21.9 18 25.5
003A53DF 2019-04-14 07:46:00 21.9 18 25.4
003A53DF 2019-04-14 07:13:06 21.9 18 25.4
003A53DF 2019-04-14 06:40:11 21.9 18 25.2
003A53DF 2019-04-14 06:07:15 21.9 17 25.2
003A53DF 2019-04-14 05:34:21 21.9 17 25.6
003A53DF 2019-04-14 05:01:26 21.9 18 25.5
003A53DF 2019-04-14 04:28:31 21.9 17 25.8
003A53DF 2019-04-14 03:55:36 21.9 17 25.7
003A53DF 2019-04-14 03:22:41 21.9 18 25.9
003A53DF 2019-04-14 02:49:47 21.9 18 25.8
003A53DF 2019-04-14 02:16:54 21.9 18 25.8
003A53DF 2019-04-14 01:43:58 21.9 18 25.8
003A53DF 2019-04-14 01:11:04 21.9 18 26
003A53DF 2019-04-14 00:38:09 22 18 26.1
003A53DF 2019-04-14 00:05:13 22.1 18 26.2
003A53DF 2019-04-13 23:32:19 22.1 17 26.2
003A53DF 2019-04-13 22:59:23 22.1 17 26.1
003A53DF 2019-04-13 22:26:27 22.1 17 26.1
003A53DF 2019-04-13 21:53:32 22.1 17 26.1
003A53DF 2019-04-13 21:20:37 22.1 17 26.1
003A53DF 2019-04-13 20:47:43 22.1 17 26.3
003A53DF 2019-04-13 20:14:49 22.1 17 26.3
003A53DF 2019-04-13 19:41:57 22.1 17 26.5
003A53DF 2019-04-13 19:09:06 22.1 17 26.6
003A53DF 2019-04-13 18:36:14 22.1 17 26.6
003A53DF 2019-04-13 18:03:23 22.2 18 26.5
003A53DF 2019-04-13 17:30:31 22.2 17 26.5
003A53DF 2019-04-13 16:57:39 22.2 18 26.6
003A53DF 2019-04-13 16:24:47 22.3 18 26.6
003A53DF 2019-04-13 15:51:55 22.3 18 26.4
003A53DF 2019-04-13 15:19:01 22.3 18 26.6
003A53DF 2019-04-13 14:46:06 22.3 17 26.3
003A53DF 2019-04-13 14:13:11 22.3 18 26.4
003A53DF 2019-04-13 13:40:16 22.3 18 26.2
003A53DF 2019-04-13 13:07:21 22.3 18 26.3
003A53DF 2019-04-13 12:34:26 22.3 18 26.3
003A53DF 2019-04-13 12:01:31 22.3 18 26.3
003A53DF 2019-04-13 11:28:37 22.3 18 26.3
003A53DF 2019-04-13 10:55:42 22.3 18 26.2
003A53DF 2019-04-13 10:22:47 22.3 18 26.1
003A53DF 2019-04-13 09:49:53 22.3 18 26.1
003A53DF 2019-04-13 09:16:58 22.3 18 26.2
003A53DF 2019-04-13 08:44:03 22.3 17 26.1
003A53DF 2019-04-13 08:11:09 22.3 18 26.1
003A53DF 2019-04-13 07:38:15 22.3 17 26.1
003A53DF 2019-04-13 07:05:19 22.3 17 25.9
003A53DF 2019-04-13 06:32:25 22.3 17 25.9
003A53DF 2019-04-13 05:59:30 22.3 17 25.7
003A53DF 2019-04-13 05:26:36 22.3 17 25.6
003A53DF 2019-04-13 04:53:41 22.3 17 25.3
003A53DF 2019-04-13 04:20:46 22.3 17 25.6
003A53DF 2019-04-13 03:47:51 22.3 17 25.9
003A53DF 2019-04-13 03:14:57 22.3 18 25.9
003A53DF 2019-04-13 02:42:02 22.4 18 25.8
003A53DF 2019-04-13 02:09:06 22.4 18 25.8
003A53DF 2019-04-13 01:36:12 22.5 18 25.7
003A53DF 2019-04-13 01:03:15 22.5 18 25.7
003A53DF 2019-04-13 00:30:19 22.5 18 25.8
003A53DF 2019-04-12 23:57:24 22.5 18 25.9
003A53DF 2019-04-12 23:24:29 22.5 18 25.9
003A53DF 2019-04-12 22:51:33 22.7 18 25.9
003A53DF 2019-04-12 22:18:40 22.7 19 26
003A53DF 2019-04-12 21:45:47 22.8 19 25.8
003A53DF 2019-04-12 21:12:53 22.8 19 26
003A53DF 2019-04-12 20:39:57 22.8 18 26.2
003A53DF 2019-04-12 20:06:59 22.7 18 26.1
003A53DF 2019-04-12 19:34:02 22.8 18 26.3
003A53DF 2019-04-12 19:01:06 22.9 18 26.3
003A53DF 2019-04-12 18:28:09 23 17 26.4
003A53DF 2019-04-12 17:55:13 23.2 17 26.7
003A53DF 2019-04-12 17:22:15 23.2 18 26.7
003A53DF 2019-04-12 16:49:19 23.2 18 26.8
003A53DF 2019-04-12 16:16:26 23 19 26.8
003A53DF 2019-04-12 15:43:29 23 19 27.2
003A53DF 2019-04-12 15:10:33 22.7 19 27.6
003A53DF 2019-04-12 14:37:35 22.5 20 27.5
003A53DF 2019-04-12 14:04:39 22.3 21 25.3
003A53DF 2019-04-12 13:31:42 21.7 22 25
003A53DF 2019-04-12 12:58:46 20.8 26 0